Location: Im Fang
(46.6019°N, 7.2397°E)
Time: 20:36:37
(UTC+00:00)

STARLINK 1030 - Pass Details

Date: 08 December 2019
Orbit: 487 x 489 km, 53.0° (Epoch: 26 January)

Event Time Altitude Azimuth Distance (km) Brightness Sun altitude
Exits shadow 05:31:11 25° 264° (W) 1,062 4.5 -14.9°
Maximum altitude 05:32:41 35° 222° (SW) 852 4.4 -14.6°
Drops below altitude 10° 05:36:15 10° 156° (SSE) 1,727 6.8 -14.1°
Sets 05:38:33 0° 147° (SSE) 2,604 8.0 -13.7°
